Location: Luxembourg
(49.6117°N, 6.1300°E)
Time: 07:57:27
(UTC+01:00)

AO-85 - Visible Passes

Search period start: 20 November 2019 00:00
Search period end: 30 November 2019 00:00
Orbit: 514 x 770 km, 64.8° (Epoch: 13 November)

Date Brightness Start Highest point End Pass type
(mag) Time Alt. Az. Time Alt. Az. Time Alt. Az.
20 Nov ? 06:27:09 10° N 06:28:17 11° N 06:29:24 10° NNE visible
21 Nov ? 05:12:32 10° N 05:12:32 10° N 05:12:47 10° N visible
21 Nov ? 06:51:37 10° NNW 06:53:37 13° NNE 06:55:35 10° NE visible
22 Nov ? 05:36:33 10° N 05:36:46 11° N 05:37:39 10° NNE visible
22 Nov ? 07:15:55 10° NNW 07:18:49 18° NNE 07:21:38 10° ENE visible
23 Nov ? 06:00:35 10° N 06:02:07 12° NNE 06:03:38 10° NNE visible
24 Nov ? 06:24:55 10° NNW 06:27:24 15° NNE 06:29:48 10° ENE visible
25 Nov ? 05:11:02 11° NNE 05:11:02 11° NNE 05:11:42 10° NNE visible
25 Nov ? 06:49:13 10° NNW 06:52:31 22° NNE 06:55:40 10° E visible
26 Nov ? 05:35:05 12° N 05:35:55 13° NNE 05:37:54 10° NE visible
26 Nov ? 07:13:36 10° NNW 07:17:27 38° NE 07:21:08 10° ESE visible
27 Nov ? 05:59:09 14° N 06:01:07 18° NNE 06:03:56 10° ENE visible
28 Nov ? 04:45:38 11° NNE 04:45:38 11° NNE 04:45:56 10° NNE visible
28 Nov ? 06:23:14 14° NNW 06:26:09 29° NE 06:29:36 10° E visible
29 Nov ? 05:09:46 15° NNE 05:09:46 15° NNE 05:12:06 10° ENE visible
29 Nov ? 06:47:22 12° NNW 06:50:58 54° NE 06:54:47 10° SE visible
